Weather History for Milford, UT

Change the Weather History Date:

Monday, June 24, 2013

  Actual Average Record
Temperature  
Mean Temperature 69 °F -  
Max Temperature 81 °F 88 °F 99 °F (2006)
Min Temperature 57 °F 49 °F 42 °F (1998)
Cooling Degree Days 4    
Growing Degree Days 19 (Base 50)    
Moisture  
Dew Point 26 °F    
Average Humidity 17    
Maximum Humidity 32    
Minimum Humidity 7    
Precipitation  
Precipitation 0.00 in - - ()
Sea Level Pressure  
Sea Level Pressure 29.65 in    
Wind  
Wind Speed 16 mph (SSW)    
Max Wind Speed 28 mph    
Max Gust Speed 39 mph    
Visibility 10 miles    
Events Rain    
Averages and records for this station are not official NWS values.
T = Trace of Precipitation, MM = Missing Value Source: NWS Daily Summary

Daily Weather History Graph

Daily Weather History Graph

Search for Another Location

Airport:

Trip Planner

Search our weather history database for the weather conditions in past years. The results will help you decide how hot, cold, wet, or windy it might be!

Date:

Astronomy

Jun. 24, 2013 Rise Set
Actual Time 6:09 AM MDT 8:59 PM MDT
Civil Twilight 5:37 AM MDT 9:31 PM MDT
Nautical Twilight 4:57 AM MDT 10:11 PM MDT
Astronomical Twilight 4:11 AM MDT 10:57 PM MDT
Moon 10:07 PM MDT (6/24) 7:40 AM MDT (6/24)
Length of Visible Light 15h 54m
Length of Day
14h 50m
Full, 97% of the Moon is Illuminated
Jun 24
Full
Jun 29
Last Quarter
Jul 8
New
Jul 15
First Quarter
Jul 22
Full

Hourly Weather History & Observations

Time (MDT) Temp. Dew Point Humidity Pressure Visibility Wind Dir Wind Speed Gust Speed Precip Events Conditions
12:52 AM 69.1 °F 18.0 °F 14% 29.58 in 10.0 mi South 13.8 mph - N/A   Clear
1:52 AM 68.0 °F 18.0 °F 15% 29.57 in 10.0 mi South 11.5 mph - N/A   Clear
2:52 AM 63.0 °F 18.0 °F 18% 29.59 in 10.0 mi SSW 9.2 mph - N/A   Clear
3:52 AM 62.1 °F 18.0 °F 18% 29.59 in 10.0 mi SSW 11.5 mph - N/A   Clear
4:52 AM 61.0 °F 18.0 °F 19% 29.59 in 10.0 mi SSW 11.5 mph - N/A   Clear
5:52 AM 61.0 °F 17.1 °F 18% 29.60 in 10.0 mi SW 12.7 mph - N/A   Clear
6:52 AM 62.1 °F 18.0 °F 18% 29.62 in 10.0 mi SW 11.5 mph - N/A   Clear
7:52 AM 68.0 °F 19.0 °F 15% 29.61 in 10.0 mi SW 10.4 mph - N/A   Clear
8:52 AM 73.0 °F 19.9 °F 14% 29.62 in 10.0 mi SW 9.2 mph - N/A   Clear
9:52 AM 77.0 °F 26.1 °F 15% 29.62 in 10.0 mi South 19.6 mph 28.8 mph N/A   Clear
10:52 AM 78.1 °F 26.1 °F 15% 29.64 in 10.0 mi SSW 25.3 mph 32.2 mph N/A   Clear
11:52 AM 79.0 °F 27.0 °F 15% 29.63 in 10.0 mi SSW 24.2 mph 35.7 mph N/A   Clear
12:52 PM 78.1 °F 26.1 °F 15% 29.64 in 10.0 mi South 20.7 mph 32.2 mph N/A   Clear
1:52 PM 79.0 °F 24.1 °F 13% 29.64 in 10.0 mi SW 26.5 mph 36.8 mph N/A   Clear
2:52 PM 77.0 °F 25.0 °F 15% 29.68 in 10.0 mi SW 27.6 mph 39.1 mph N/A   Partly Cloudy
3:52 PM 77.0 °F 27.0 °F 16% 29.67 in 10.0 mi SSW 27.6 mph 36.8 mph N/A   Partly Cloudy
4:52 PM 73.0 °F 35.1 °F 25% 29.72 in 10.0 mi SSW 27.6 mph 34.5 mph 0.00 in Rain Light Rain
5:52 PM 73.0 °F 33.1 °F 23% 29.71 in 10.0 mi SW 25.3 mph 36.8 mph 0.00 in   Overcast
6:52 PM 75.0 °F 33.1 °F 22% 29.69 in 10.0 mi SSW 24.2 mph - N/A   Overcast
7:52 PM 73.9 °F 32.0 °F 21% 29.69 in 10.0 mi SW 17.3 mph 21.9 mph N/A   Overcast
8:52 PM 73.9 °F 30.9 °F 21% 29.69 in 10.0 mi SW 13.8 mph - N/A   Overcast
9:52 PM 73.0 °F 30.9 °F 21% 29.71 in 10.0 mi SW 13.8 mph - N/A   Overcast
10:52 PM 71.1 °F 32.0 °F 24% 29.72 in 10.0 mi SSW 12.7 mph - N/A   Mostly Cloudy
11:52 PM 64.9 °F 34.0 °F 32% 29.74 in 10.0 mi South 9.2 mph - N/A   Clear